Regional Weather Roundup
Issued by NWS Burlington, VT

Current Version | Previous Version | Text Only | Print | Product List | Glossary Off
Versions: 1 2 3 4 5 6 7 8 9 10 11 12 13 14 15 16 17 18 19 20 21 22 23 24 25 26 27 28 29 30 31 32 33 34 35 36 37 38 39 40 41 42 43 44 45 46 47 48 49 50

000
ASUS41 KBTV 060810
RWRBTV
VERMONT REGIONAL WEATHER ROUNDUP
NATIONAL WEATHER SERVICE BURLINGTON VT
300 AM EST TUE DEC 06 2016

NOTE: "FAIR" INDICATES FEW OR NO CLOUDS BELOW 12,000 FEET WITH NO
SIGNIFICANT WEATHER AND/OR OBSTRUCTIONS TO VISIBILITY.

* THESE REPORTS ARE NOT UNDER NWS QUALITY CONTROL AND/OR DO NOT
  REPORT WEATHER SUCH AS PRECIPITATION AND FOG.

VTZ001>019-060900-
_____VERMONT_____


CITY           SKY/WX    TMP DP  RH WIND       PRES   REMARKS
BURLINGTON     CLOUDY    32  27  81 CALM      30.09R
MONTPELIER     CLOUDY    30  28  92 NE5       30.08R WCI  25
MORRISVILLE    CLOUDY    30  25  81 NE6       30.08R WCI  24
ST. JOHNSBURY*   N/A     32  27  81 MISG      30.04R
LYNDONVILLE*   CLOUDY    29  26  89 W7        30.04R WCI  22
MIDDLEBURY*    CLOUDY   N/A N/A N/A CALM      30.09R
RUTLAND*       CLOUDY    30  28  92 CALM      30.07R
SPRINGFIELD    CLOUDY    23  21  92 CALM      30.08R
HIGHGATE*      CLOUDY    28  26  94 CALM      30.10R
NEWPORT*       CLOUDY    26  23  91 N3        30.05S
BENNINGTON     CLOUDY    33  31  92 CALM      30.07R
SUTTON*          N/A     25 N/A N/A MISG        N/A

_____LAKE CHAMPLAIN_____


CITY           SKY/WX    TMP DP  RH WIND       PRES   REMARKS
BURTON ISLAND*   N/A     32  28  86 NE1         N/A
COLCHESTER RF*   N/A     34  32  93 E7          N/A  WCI  28
DIAMOND ISL*     N/A     34  32  93 N5          N/A  WCI  30

$$

NYZ007-026>031-035-052-083-087-060900-
_____NORTHERN NEW YORK_____


CITY           SKY/WX    TMP DP  RH WIND       PRES   REMARKS
PLATTSBURGH    CLOUDY    30  27  88 CALM      30.10R
SARANAC LAKE   CLOUDY    32  28  85 CALM      30.02S
MASSENA        CLOUDY    33  30  88 W3        30.13R
OGDENSBURG*    CLEAR     27  27 100 CALM      30.11R
POTSDAM*       CLOUDY    30  30 100 W3        30.11R FOG
WATERTOWN      CLEAR     27  25  92 SE3       30.11S FOG
FT DRUM        CLEAR     29  28  96 CALM      30.09R
ALBANY         CLOUDY    38  31  76 W9        30.10S WCI  31
GLENS FALLS    CLOUDY    32  29  88 CALM      30.09R

$$
NHZ002-005-011-060900-
_____NEW HAMPSHIRE_____


CITY           SKY/WX    TMP DP  RH WIND       PRES   REMARKS
LEBANON        FOG       24  22  91 CALM      30.06R VSB 1
KEENE          CLEAR     17  14  88 N3        30.09R
MT WASHINGTON  BLWGSNOW  10  10 100 NW60        N/A  VSB 0   WCI -18
PLYMOUTH         N/A     34  28  80 W6        30.04R WCI  29
WHITEFIELD     CLOUDY    30  25  80 CALM      30.03R

$$

_____REGIONAL QUEBEC LOCATIONS_____


CITY           SKY/WX    TMP DP  RH WIND       PRES   REMARKS
MONTREAL       CLOUDY    27  25  93 CALM      30.10R
QUEBEC CITY    MOCLDY    21  18  86 W9        30.03R WCI  11
SHERBROOKE     FLURRIES  23  21  93 W3        30.05R

_____REGIONAL ONTARIO LOCATIONS_____


CITY           SKY/WX    TMP DP  RH WIND       PRES   REMARKS
OTTAWA         CLOUDY    27  27 100 VRB2      30.10R FOG

______KEY______
VSB  - VISIBILITY IN MILES
WCI  - WIND CHILL INDEX
HX   - HEAT INDEX
$$
NNNN



USA.gov is the U.S. government's official web portal to all federal, state and local government web resources and services.